Comanche, TX

8:47 AM CDT on June 26, 2017 (GMT -0500)
Comanche

Weather History for KMKN - March, 2014

Change the Weather History Date:

Saturday, March 15, 2014

  Actual Average (KSEP) Record (KSEP)
Temperature  
Mean Temperature 65 °F -  
Max Temperature 75 °F 67 °F 82 °F (1942)
Min Temperature 55 °F 43 °F 24 °F (1954)
Growing Degree Days 15 (Base 50)    
Moisture  
Dew Point 57 °F    
Average Humidity 81    
Maximum Humidity 100    
Minimum Humidity 42    
Precipitation  
Precipitation 0.01 in - - ()
Sea Level Pressure  
Sea Level Pressure 29.85 in    
Wind  
Wind Speed 9 mph (SSE)    
Max Wind Speed 23 mph    
Max Gust Speed 31 mph    
Visibility 10 miles    
Events Rain , Thunderstorm    
Averages and records for this station are not official NWS values.
T = Trace of Precipitation, MM = Missing Value Source: NWS Daily Summary

Daily Weather History Graph

Daily Weather History Graph

Search for Another Location

Airport or City:

Trip Planner

Search our weather history database for the weather conditions in past years. The results will help you decide how hot, cold, wet, or windy it might be!

Date:

Astronomy

Mar. 15, 2014 Rise Set
Actual Time 7:44 AM CDT 7:42 PM CDT
Civil Twilight 7:20 AM CDT 8:06 PM CDT
Nautical Twilight 6:51 AM CDT 8:35 PM CDT
Astronomical Twilight 6:23 AM CDT 9:03 PM CDT
Moon 7:03 PM CDT (3/15) 6:55 AM CDT (3/15)
Length of Visible Light 12h 46m
Length of Day
11h 58m
Waxing Gibbous, 99% of the Moon is Illuminated
Mar 15
Waxing Gibbous
Mar 16
Full
Mar 23
Last Quarter
Mar 30
New
Apr 7
First Quarter

Hourly Weather History & Observations

Time (CDT) Temp. Dew Point Humidity Pressure Visibility Wind Dir Wind Speed Gust Speed Precip Events Conditions
12:15 AM 60.6 °F 50.9 °F 70% 29.96 in 10.0 mi SE 8.1 mph - N/A   Clear
12:35 AM 60.8 °F 51.1 °F 70% 29.95 in 10.0 mi SE 8.1 mph - N/A   Clear
12:55 AM 60.4 °F 51.8 °F 73% 29.95 in 10.0 mi SSE 10.4 mph - N/A   Clear
1:15 AM 60.8 °F 52.2 °F 73% 29.95 in 10.0 mi SSE 9.2 mph - N/A   Clear
1:35 AM 60.4 °F 52.7 °F 76% 29.94 in 10.0 mi SSE 8.1 mph - N/A   Clear
1:55 AM 60.1 °F 53.4 °F 79% 29.93 in 10.0 mi SSE 10.4 mph - N/A   Clear
2:15 AM 60.8 °F 54.5 °F 80% 29.92 in 10.0 mi SSE 10.4 mph - N/A   Clear
2:35 AM 60.4 °F 54.9 °F 82% 29.93 in 10.0 mi SSE 9.2 mph - N/A   Clear
2:55 AM 60.4 °F 55.4 °F 83% 29.94 in 10.0 mi South 8.1 mph - N/A   Clear
3:15 AM 60.3 °F 55.8 °F 85% 29.93 in 10.0 mi South 8.1 mph - N/A   Clear
3:35 AM 61.0 °F 56.8 °F 86% 29.93 in 10.0 mi South 9.2 mph - N/A   Mostly Cloudy
3:55 AM 61.7 °F 57.2 °F 85% 29.93 in 10.0 mi South 11.5 mph - N/A   Overcast
4:15 AM 61.7 °F 57.2 °F 85% 29.92 in 10.0 mi South 11.5 mph - N/A   Overcast
4:35 AM 61.7 °F 57.2 °F 85% 29.92 in 10.0 mi South 12.7 mph - N/A   Scattered Clouds
4:55 AM 61.5 °F 57.2 °F 86% 29.91 in 10.0 mi South 11.5 mph - N/A   Clear
5:15 AM 61.2 °F 57.2 °F 87% 29.91 in 10.0 mi South 8.1 mph - N/A   Scattered Clouds
5:35 AM 61.2 °F 57.2 °F 87% 29.90 in 10.0 mi South 9.2 mph - N/A   Scattered Clouds
5:55 AM 61.2 °F 57.4 °F 87% 29.88 in 10.0 mi SSE 10.4 mph - N/A   Clear
6:15 AM 61.0 °F 57.6 °F 88% 29.89 in 10.0 mi South 8.1 mph - N/A   Scattered Clouds
6:35 AM 61.0 °F 57.6 °F 88% 29.90 in 10.0 mi South 4.6 mph - N/A   Scattered Clouds
6:55 AM 60.8 °F 57.9 °F 90% 29.89 in 10.0 mi SSE 6.9 mph - N/A   Scattered Clouds
7:15 AM 60.8 °F 57.9 °F 90% 29.92 in 10.0 mi SW 3.5 mph - N/A   Mostly Cloudy
7:35 AM 60.4 °F 57.7 °F 91% 29.92 in 10.0 mi Calm Calm - N/A   Overcast
7:55 AM 60.8 °F 58.1 °F 91% 29.92 in 10.0 mi South 3.5 mph - N/A   Overcast
8:15 AM 61.0 °F 58.6 °F 92% 29.92 in 10.0 mi South 6.9 mph - N/A   Overcast
8:35 AM 61.2 °F 58.6 °F 91% 29.92 in 10.0 mi SSE 4.6 mph - N/A   Overcast
8:55 AM 61.0 °F 58.8 °F 93% 29.91 in 10.0 mi SSE 8.1 mph - N/A   Overcast
9:15 AM 61.7 °F 59.2 °F 91% 29.91 in 10.0 mi South 9.2 mph - N/A   Overcast
9:35 AM 62.2 °F 59.4 °F 90% 29.92 in 10.0 mi South 8.1 mph - N/A   Overcast
9:55 AM 62.6 °F 59.2 °F 89% 29.93 in 10.0 mi South 4.6 mph - N/A   Overcast
10:15 AM 62.6 °F 59.2 °F 89% 29.93 in 10.0 mi SE 4.6 mph - N/A   Overcast
10:35 AM 62.2 °F 59.0 °F 89% 29.93 in 10.0 mi ESE 8.1 mph - N/A   Overcast
10:55 AM 61.9 °F 59.5 °F 92% 29.93 in 10.0 mi ESE 8.1 mph - N/A   Light Drizzle
11:15 AM 62.1 °F 60.3 °F 94% 29.92 in 10.0 mi SE 6.9 mph - N/A   Overcast
11:35 AM 62.6 °F 60.4 °F 93% 29.92 in 10.0 mi SSE 5.8 mph - N/A Rain Light Rain
11:55 AM 62.4 °F 61.0 °F 95% 29.90 in 10.0 mi SSE 4.6 mph - N/A   Overcast
12:15 PM 63.1 °F 61.7 °F 95% 29.89 in 10.0 mi SSE 8.1 mph - N/A   Overcast
12:35 PM 64.0 °F 61.7 °F 92% 29.89 in 10.0 mi SSE 9.2 mph - N/A   Overcast
12:55 PM 65.8 °F 61.3 °F 85% 29.87 in 10.0 mi SSE 11.5 mph - N/A   Overcast
1:15 PM 66.4 °F 60.8 °F 82% 29.85 in 10.0 mi SSE 13.8 mph - N/A   Overcast
1:35 PM 68.4 °F 59.9 °F 74% 29.83 in 10.0 mi South 12.7 mph - N/A   Mostly Cloudy
1:55 PM 68.9 °F 58.8 °F 70% 29.81 in 10.0 mi South 11.5 mph 16.1 mph N/A   Mostly Cloudy
2:15 PM 70.9 °F 58.3 °F 64% 29.78 in 10.0 mi SSE 12.7 mph 18.4 mph N/A   Mostly Cloudy
2:35 PM 71.1 °F 57.2 °F 61% 29.75 in 10.0 mi South 16.1 mph 23.0 mph N/A   Scattered Clouds
2:55 PM 73.6 °F 57.0 °F 56% 29.73 in 10.0 mi South 18.4 mph 24.2 mph N/A   Mostly Cloudy
3:15 PM 71.6 °F 56.3 °F 58% 29.74 in 10.0 mi South 19.6 mph 24.2 mph N/A Thunderstorm Overcast
3:35 PM 72.0 °F 55.9 °F 57% 29.72 in 10.0 mi South 19.6 mph - N/A   Overcast
3:55 PM 74.1 °F 55.9 °F 53% 29.71 in 10.0 mi SSW 20.7 mph 31.1 mph N/A   Mostly Cloudy
4:15 PM 72.0 °F 56.1 °F 57% 29.70 in 10.0 mi South 18.4 mph 27.6 mph N/A   Mostly Cloudy
4:35 PM 73.2 °F 56.3 °F 55% 29.69 in 10.0 mi SSW 20.7 mph 31.1 mph N/A   Overcast
4:55 PM 75.6 °F 53.8 °F 47% 29.68 in 10.0 mi SSW 23.0 mph 28.8 mph N/A   Mostly Cloudy
5:15 PM 75.4 °F 54.0 °F 47% 29.67 in 10.0 mi SSW 18.4 mph - N/A   Scattered Clouds
5:35 PM 75.4 °F 50.7 °F 42% 29.68 in 10.0 mi SW 16.1 mph - N/A   Scattered Clouds
5:55 PM 73.6 °F 50.2 °F 44% 29.68 in 10.0 mi West 8.1 mph 17.3 mph N/A Thunderstorm Scattered Clouds
6:15 PM 68.5 °F 57.9 °F 69% 29.69 in 10.0 mi North 16.1 mph - N/A   Mostly Cloudy
6:35 PM 65.1 °F 60.8 °F 86% 29.69 in 3.0 mi North 12.7 mph - N/A Rain , Thunderstorm Heavy Thunderstorms and Rain
6:50 PM 64.8 °F 60.8 °F 87% 29.72 in 10.0 mi NW 16.1 mph 20.7 mph 0.01 in Rain , Thunderstorm Rain
9:55 PM 56.8 °F 56.5 °F 99% 29.74 in - ENE 5.8 mph - N/A   Unknown
10:15 PM 57.0 °F 56.7 °F 99% 29.75 in 10.0 mi NE 6.9 mph - N/A   Overcast
10:35 PM 56.7 °F 56.5 °F 99% 29.75 in 10.0 mi ENE 6.9 mph - N/A   Overcast
10:55 PM 56.1 °F 55.9 °F 99% 29.77 in 10.0 mi Calm Calm - N/A   Overcast
11:15 PM 55.6 °F 55.6 °F 100% 29.77 in 7.0 mi North 4.6 mph - N/A   Scattered Clouds
11:35 PM 55.2 °F 55.2 °F 100% 29.78 in 3.0 mi North 8.1 mph - N/A   Mostly Cloudy
11:55 PM 55.4 °F 55.4 °F 100% 29.79 in 7.0 mi North 9.2 mph 16.1 mph N/A   Overcast